| time (UTC) | temp F | wind direction | speed MPH | gust MPH | rain 1hr in | rain 24hr in | rain mn in | humidity % | barometer mb |
| 20260901224547 | 65 | 255 | 1.0 | 5.0 | 0.00 | 0.00 | 0.00 | 84 | 1018.2 |
| 20260901223049 | 66 | 262 | 2.0 | 7.0 | 0.00 | 0.00 | 0.00 | 82 | 1018.3 |
| 20260901221606 | 67 | 256 | 2.0 | 6.0 | 0.00 | 0.00 | 0.00 | 81 | 1018.2 |
| 20260901220042 | 67 | 243 | 4.0 | 7.0 | 0.00 | 0.00 | 0.00 | 79 | 1018.2 |
| 20260901214539 | 68 | 258 | 3.0 | 8.0 | 0.00 | 0.00 | 0.00 | 78 | 1018.0 |
| 20260901213040 | 69 | 223 | 4.0 | 9.0 | 0.00 | 0.00 | 0.00 | 77 | 1017.9 |
| 20260901211538 | 69 | 252 | 4.0 | 8.0 | 0.00 | 0.00 | 0.00 | 76 | 1017.9 |
| 20260901210038 | 68 | 229 | 4.0 | 10.0 | 0.00 | 0.00 | 0.00 | 79 | 1017.7 |
| 20260901204537 | 68 | 285 | 4.0 | 7.0 | 0.00 | 0.00 | 0.00 | 81 | 1017.6 |
| 20260901203048 | 68 | 222 | 4.0 | 7.0 | 0.00 | 0.00 | 0.00 | 81 | 1017.7 |
| 20260901201545 | 68 | 229 | 3.0 | 8.0 | 0.00 | 0.00 | 0.00 | 82 | 1017.6 |
| 20260901200035 | 68 | 237 | 4.0 | 10.0 | 0.00 | 0.00 | 0.00 | 82 | 1017.6 |
| 20260901194534 | 68 | 247 | 5.0 | 8.0 | 0.00 | 0.00 | 0.00 | 81 | 1017.6 |
| 20260901193034 | 70 | 205 | 3.0 | 10.0 | 0.00 | 0.00 | 0.00 | 78 | 1017.5 |
| 20260901191534 | 70 | 253 | 5.0 | 10.0 | 0.00 | 0.00 | 0.00 | 80 | 1017.4 |
| 20260901190041 | 69 | 236 | 5.0 | 10.0 | 0.00 | 0.00 | 0.00 | 81 | 1017.4 |
| 20260901184535 | 68 | 245 | 5.0 | 9.0 | 0.00 | 0.00 | 0.00 | 80 | 1017.4 |
| 20260901183034 | 68 | 204 | 4.0 | 10.0 | 0.00 | 0.00 | 0.00 | 80 | 1017.2 |
| 20260901181532 | 68 | 250 | 6.0 | 9.0 | 0.00 | 0.00 | 0.00 | 79 | 1017.4 |
| 20260901180031 | 67 | 256 | 5.0 | 12.0 | 0.00 | 0.00 | 0.00 | 81 | 1017.6 |
| 20260901174533 | 68 | 243 | 4.0 | 8.0 | 0.00 | 0.00 | 0.00 | 82 | 1017.6 |
| 20260901173030 | 67 | 193 | 3.0 | 8.0 | 0.00 | 0.00 | 0.00 | 83 | 1017.7 |
| 20260901171530 | 67 | 252 | 4.0 | 8.0 | 0.00 | 0.00 | 0.00 | 83 | 1017.7 |
| 20260901170030 | 67 | 205 | 3.0 | 7.0 | 0.00 | 0.00 | 0.00 | 82 | 1017.8 |
| 20260901164529 | 68 | 264 | 3.0 | 9.0 | 0.00 | 0.00 | 0.00 | 80 | 1017.7 |
| 20260901163028 | 68 | 255 | 4.0 | 13.0 | 0.00 | 0.00 | 0.00 | 81 | 1017.5 |
| 20260901161537 | 68 | 208 | 4.0 | 10.0 | 0.00 | 0.00 | 0.00 | 80 | 1017.7 |
| 20260901160041 | 69 | 182 | 5.0 | 11.0 | 0.00 | 0.00 | 0.00 | 77 | 1017.7 |
| 20260901154527 | 69 | 233 | 4.0 | 12.0 | 0.00 | 0.00 | 0.00 | 78 | 1017.9 |
| 20260901153027 | 70 | 231 | 6.0 | 13.0 | 0.00 | 0.00 | 0.00 | 74 | 1017.9 |
| 20260901151525 | 69 | 236 | 6.0 | 11.0 | 0.00 | 0.00 | 0.00 | 73 | 1018.0 |
| 20260901150029 | 68 | 223 | 4.0 | 9.0 | 0.00 | 0.00 | 0.00 | 74 | 1017.9 |
| 20260901144521 | 69 | 168 | 4.0 | 11.0 | 0.00 | 0.00 | 0.00 | 72 | 1017.8 |
| 20260901143021 | 69 | 181 | 3.0 | 8.0 | 0.00 | 0.00 | 0.00 | 73 | 1017.8 |
| 20260901141519 | 69 | 127 | 3.0 | 7.0 | 0.00 | 0.00 | 0.00 | 73 | 1017.8 |
| 20260901140017 | 70 | 37 | 0.0 | 1.0 | 0.00 | 0.00 | 0.00 | 78 | 1017.8 |
| 20260901134528 | 69 | 141 | 0.0 | 3.0 | 0.00 | 0.00 | 0.00 | 77 | 1017.8 |
| 20260901133013 | 68 | 131 | 0.0 | 3.0 | 0.00 | 0.00 | 0.00 | 79 | 1017.7 |
| 20260901131513 | 69 | 162 | 0.0 | 4.0 | 0.00 | 0.00 | 0.00 | 78 | 1017.8 |
| 20260901130007 | 67 | 279 | 1.0 | 5.0 | 0.00 | 0.00 | 0.00 | 80 | 1017.7 |
| 20260901124504 | 66 | 250 | 1.0 | 4.0 | 0.00 | 0.00 | 0.00 | 80 | 1017.7 |
| 20260901123002 | 66 | 243 | 0.0 | 3.0 | 0.00 | 0.00 | 0.00 | 83 | 1017.8 |
| 20260901121600 | 65 | 233 | 1.0 | 5.0 | 0.00 | 0.00 | 0.00 | 85 | 1017.8 |
| 20260901120104 | 64 | 253 | 1.0 | 4.0 | 0.00 | 0.00 | 0.00 | 84 | 1017.8 |
| 20260901114555 | 64 | 259 | 3.0 | 6.0 | 0.00 | 0.00 | 0.00 | 85 | 1017.5 |
| 20260901113111 | 63 | 230 | 2.0 | 5.0 | 0.00 | 0.00 | 0.00 | 86 | 1017.4 |
| 20260901111549 | 62 | 226 | 2.0 | 5.0 | 0.00 | 0.00 | 0.00 | 88 | 1017.5 |
| 20260901104545 | 60 | 260 | 1.0 | 3.0 | 0.00 | 0.00 | 0.00 | 91 | 1017.4 |
| 20260901103037 | 58 | 272 | 1.0 | 2.0 | 0.00 | 0.00 | 0.00 | 92 | 1017.5 |
| 20260901101559 | 54 | 15 | 0.0 | 0.0 | 0.00 | 0.00 | 0.00 | 93 | 1017.4 |
| 20260901100037 | 53 | 14 | 0.0 | 1.0 | 0.00 | 0.00 | 0.00 | 92 | 1017.4 |
| 20260901094535 | 53 | 13 | 0.0 | 1.0 | 0.00 | 0.00 | 0.00 | 93 | 1017.3 |
| 20260901093035 | 53 | 13 | 0.0 | 0.0 | 0.00 | 0.00 | 0.00 | 92 | 1017.2 |
| 20260901091533 | 54 | 13 | 0.0 | 0.0 | 0.00 | 0.00 | 0.00 | 92 | 1017.1 |
| 20260901090034 | 54 | 13 | 0.0 | 0.0 | 0.00 | 0.00 | 0.00 | 92 | 1017.0 |
| 20260901084539 | 55 | 13 | 0.0 | 1.0 | 0.00 | 0.02 | 0.00 | 91 | 1016.8 |
| 20260901083035 | 56 | 260 | 0.0 | 1.0 | 0.00 | 0.02 | 0.00 | 91 | 1016.7 |
| 20260901081528 | 57 | 263 | 0.0 | 3.0 | 0.00 | 0.02 | 0.00 | 91 | 1016.7 |
| 20260901080037 | 57 | 262 | 0.0 | 3.0 | 0.00 | 0.02 | 0.00 | 91 | 1016.8 |
| 20260901074528 | 57 | 288 | 0.0 | 2.0 | 0.00 | 0.02 | 0.00 | 91 | 1016.8 |
| 20260901073028 | 58 | 261 | 0.0 | 3.0 | 0.00 | 0.02 | 0.00 | 91 | 1016.8 |
| 20260901071526 | 58 | 261 | 0.0 | 2.0 | 0.00 | 0.02 | 0.00 | 91 | 1017.0 |
| 20260901070023 | 58 | 269 | 1.0 | 3.0 | 0.00 | 0.02 | 0.00 | 92 | 1016.8 |
| 20260901064526 | 58 | 333 | 0.0 | 2.0 | 0.00 | 0.03 | 0.00 | 91 | 1016.9 |
| 20260901063020 | 58 | 302 | 0.0 | 2.0 | 0.00 | 0.03 | 0.00 | 91 | 1016.8 |
| 20260901061519 | 58 | 324 | 0.0 | 1.0 | 0.00 | 0.03 | 0.00 | 91 | 1016.8 |
| 20260901060018 | 57 | 248 | 0.0 | 2.0 | 0.00 | 0.03 | 0.00 | 92 | 1016.9 |
| 20260901054515 | 56 | 279 | 0.0 | 1.0 | 0.00 | 0.05 | 0.00 | 92 | 1016.9 |
| 20260901053018 | 56 | 278 | 0.0 | 1.0 | 0.00 | 0.05 | 0.00 | 92 | 1016.7 |
| 20260901051513 | 53 | 23 | 0.0 | 0.0 | 0.00 | 0.05 | 0.00 | 92 | 1016.8 |
| 20260901050011 | 53 | 23 | 0.0 | 1.0 | 0.00 | 0.05 | 0.00 | 91 | 1016.8 |
| 20260901044514 | 55 | 262 | 0.0 | 0.0 | 0.00 | 0.06 | 0.00 | 91 | 1016.9 |
| 20260901043016 | 55 | 262 | 0.0 | 0.0 | 0.00 | 0.06 | 0.00 | 90 | 1017.0 |
| 20260901041508 | 55 | 265 | 0.0 | 2.0 | 0.00 | 0.06 | 0.00 | 91 | 1017.1 |
| 20260901040007 | 54 | 359 | 0.0 | 1.0 | 0.00 | 0.06 | 0.00 | 90 | 1017.1 |
| 20260901034505 | 56 | 359 | 0.0 | 1.0 | 0.00 | 0.08 | 0.00 | 90 | 1017.0 |
| 20260901033002 | 55 | 1 | 0.0 | 1.0 | 0.00 | 0.08 | 0.00 | 91 | 1016.9 |
| 20260901031600 | 53 | 22 | 0.0 | 1.0 | 0.00 | 0.08 | 0.00 | 90 | 1016.8 |
| 20260901030056 | 54 | 280 | 0.0 | 0.0 | 0.00 | 0.08 | 0.00 | 90 | 1016.7 |
| 20260901024557 | 54 | 281 | 0.0 | 0.0 | 0.00 | 0.08 | 0.08 | 88 | 1016.8 |
| 20260901023050 | 56 | 280 | 0.0 | 1.0 | 0.00 | 0.08 | 0.08 | 87 | 1016.8 |
| 20260901021607 | 57 | 280 | 0.0 | 0.0 | 0.00 | 0.08 | 0.08 | 87 | 1016.8 |
| 20260901020101 | 57 | 280 | 0.0 | 0.0 | 0.00 | 0.08 | 0.08 | 85 | 1016.9 |
| 20260901014548 | 58 | 280 | 0.0 | 1.0 | 0.00 | 0.09 | 0.08 | 84 | 1016.7 |
| 20260901013046 | 58 | 277 | 0.0 | 1.0 | 0.00 | 0.09 | 0.08 | 84 | 1016.8 |
| 20260901011543 | 58 | 277 | 0.0 | 0.0 | 0.00 | 0.09 | 0.08 | 84 | 1016.7 |
| 20260901010043 | 58 | 277 | 0.0 | 1.0 | 0.00 | 0.09 | 0.08 | 85 | 1016.7 |
| 20260901004542 | 58 | 277 | 0.0 | 0.0 | 0.00 | 0.09 | 0.08 | 84 | 1016.5 |
| 20260901003046 | 59 | 277 | 0.0 | 1.0 | 0.00 | 0.09 | 0.08 | 83 | 1016.5 |
| 20260901001555 | 59 | 276 | 0.0 | 1.0 | 0.00 | 0.09 | 0.08 | 83 | 1016.4 |
| 20260901000039 | 59 | 277 | 0.0 | 1.0 | 0.00 | 0.09 | 0.08 | 82 | 1016.3 |
| 20260831234543 | 60 | 277 | 0.0 | 0.0 | 0.00 | 0.09 | 0.08 | 81 | 1016.0 |
| 20260831233043 | 61 | 277 | 0.0 | 0.0 | 0.00 | 0.09 | 0.08 | 80 | 1015.8 |
| 20260831231534 | 61 | 277 | 0.0 | 1.0 | 0.00 | 0.09 | 0.08 | 79 | 1015.8 |
| 20260831230032 | 62 | 277 | 0.0 | 1.0 | 0.00 | 0.09 | 0.08 | 77 | 1015.7 |